Flag for Canada Weather past 2 weeks in Whitby, Ontario, Canada

Now
52 °F

Passing clouds.


Feels Like: 50 °F
Forecast: 42 / 50 °F
Wind: 6 mph from West

Location: Toronto Buttonville

Current Time: Apr 21, 2015 at 1:16:59 AM

Latest Report: Apr 21, 2015 at 12:00 AM


Visibility: 15 mi

Pressure: 29.49 "Hg

Humidity: 82%

Dew point: 46 °F

Location of WhitbyLocation

Historic Weather in Whitby — Graph

°F

Whitby temperature yesterday

Maximum temperature yesterday: 59 °F (at 6:00 PM)
Minimum temperature yesterday: 39 °F (at 7:00 AM)
Average temperature yesterday: 49 °F

Past Weeks' High & Low Weather Summary

 TemperatureHumidityPressure
High73 °F (Apr 13, 4:00 PM)100% (Apr 8, 2:00 PM)30.42 "Hg (Apr 8, 2:00 PM)
Low28 °F (Apr 6, 12:00 AM)20% (Apr 14, 4:00 PM)29.38 "Hg (Apr 20, 6:00 PM)
Average47 °F64%30.07 "Hg
* Reported Midnight between Apr 5 and Apr 6 — Midnight between Apr 20 and Apr 21, Whitby, Weather by CustomWeather, © 2015

Note: Actual official high and low records may vary slightly from our data, if they occured in-between our weather recording intervals... More about our weather records

Advertising

Whitby weather history for previous 24 hours

 ConditionsComfort  
Time TempWeatherWind HumidityBarometerVisibility
12:00 AM
Tue, Apr 21
52 °FPassing clouds.6 mph82%29.49 "Hg15 mi
11:00 PM
Mon, Apr 20
54 °FPassing clouds.5 mph72%29.46 "Hg15 mi
10:00 PM55 °FPassing clouds.7 mph63%29.46 "Hg15 mi
9:00 PM57 °FPartly sunny.16 mph72%29.44 "Hg15 mi
8:00 PM55 °FPartly sunny.8 mph88%29.41 "Hg15 mi
7:00 PM57 °FPartly sunny.8 mph88%29.39 "Hg12 mi
6:00 PM59 °FBroken clouds.8 mph88%29.38 "Hg12 mi
5:00 PM57 °FPartly sunny.7 mph100%29.39 "Hg12 mi
4:00 PM55 °FLight rain. Fog.5 mph94%29.38 "Hg3 mi
3:57 PMN/ALight rain.5 mphN/AN/A3 mi
3:00 PM54 °FLight rain. Overcast.7 mph94%29.41 "Hg10 mi
2:00 PM52 °FPartly sunny.7 mph94%29.41 "Hg10 mi
1:00 PM52 °FPartly sunny.8 mph94%29.43 "Hg10 mi
12:49 PMN/APartly sunny.9 mphN/AN/A8 mi
12:00 PM45 °FFog.9 mph100%29.45 "Hg6 mi
11:00 AM43 °FLight rain. Low clouds.12 mph100%29.46 "Hg3 mi
10:00 AM41 °FLight rain. Low clouds.13 mph100%29.47 "Hg8 mi
9:00 AM41 °FLight rain. Fog.16 mph100%29.49 "Hg3 mi
8:00 AM41 °FLight rain. Fog.17 mph93%29.51 "Hg3 mi
7:00 AM39 °FLight rain. Fog.20 mph100%29.54 "Hg5 mi
6:54 AMN/ALight rain.18 mphN/AN/A7 mi
6:00 AM41 °FLight rain. Fog.24 mph93%29.56 "Hg4 mi
5:00 AM43 °FRain. Fog.22 mph100%29.57 "Hg4 mi
4:00 AM46 °FLight rain. Fog.23 mph100%29.60 "Hg5 mi
3:00 AM46 °FRain. Fog.15 mph93%29.65 "Hg2 mi
2:45 AMN/ARain.16 mphN/AN/A3 mi
2:00 AM43 °FRain. Fog.15 mph100%29.71 "Hg4 mi
1:00 AM46 °FLight rain. Overcast.17 mph71%29.77 "Hg11 mi
Weather by CustomWeather, © 2015

See weather overviewHow to use our weather pages